sat.trackr.live / text

‹ back to catalog

NAVSTAR 55 (USA 178)

NORAD 28361 · 2004-023A

PAYLOAD ACTIVE UNKNOWN

§ Identity

Operator
Country
US
Launch date
2004-06-23
Launch site
AFETR
Launch vehicle
Mass (kg)
RCS (m²)
3.21

External: N2YO · Heavens-Above · Gunter

§ Orbital elements

Epoch: 2026-05-24T08:45:53.115840Z

Period
718.00 min
Inclination
54.8487°
Eccentricity
0.0160270
Mean motion
2.00555817 rev/d
Perigee alt
19,757.2 km
Apogee alt
20,608.6 km
Semi-major
26,561.0 km
B*
0.0000e+0
RAAN
87.6732°
Arg perigee
301.2714°
Mean anomaly
171.8878°
Rev number
16,056

§ Raw data

NAVSTAR 55 (USA 178)1 28361U 04023A   26144.36519810 -.00000009  00000+0  00000+0 0  99972 28361  54.8487  87.6732 0160270 301.2714 171.8878  2.00555817160566

JSON: /api/v1/satellites/28361 · /tle

For live sub-satellite position, see the globe view (requires WebGL).

§ Visibility from observer

Set your observer location to see the next 7 days of passes ≥ 10°. The values pass through the URL so the page stays shareable.

No JS? Fill the form by hand. The geolocation button needs JavaScript.